Flag for Australia Weather past 2 weeks in The Settlement, Christmas Island, Australia

Now
81 °F

Sprinkles. Cloudy.


Feels Like: 87 °F
Forecast: 76 / 83 °F
Wind: 6 mph from West

Location: Christmas Island Aerodrome

Current Time: Apr 18, 2015 at 10:51:24 AM

Latest Report: Apr 18, 2015 at 10:00 AM


Visibility: N/A

Pressure: 29.92 "Hg

Humidity: 89%

Dew point: 77 °F

Location of The SettlementLocation

Historic Weather in The Settlement — Graph

°F

The Settlement temperature yesterday

Maximum temperature yesterday: 86 °F (at 11:00 AM)
Minimum temperature yesterday: 77 °F (at 11:03 PM)
Average temperature yesterday: 81 °F

Past Weeks' High & Low Weather Summary

 TemperatureHumidityPressure
High86 °F (Apr 3, 2:00 PM)100% (Apr 3, 8:00 PM)29.98 "Hg (Apr 3, 8:00 PM)
Low73 °F (Apr 13, 4:00 AM)59% (Apr 12, 1:00 PM)29.74 "Hg (Apr 6, 4:00 PM)
Average79 °F87%29.88 "Hg
* Reported Apr 3 9:00 AM — Apr 18 9:00 AM, The Settlement, Weather by CustomWeather, © 2015

Note: Actual official high and low records may vary slightly from our data, if they occured in-between our weather recording intervals... More about our weather records

Advertising

The Settlement weather history for previous 24 hours

 ConditionsComfort  
Time TempWeatherWind HumidityBarometerVisibility
9:00 AM
Sat, Apr 18
81 °FSunny.5 mph84%29.92 "HgN/A
8:00 AM81 °FSunny.3 mph84%29.89 "HgN/A
7:00 AM79 °FSunny.6 mph89%29.86 "HgN/A
6:00 AM77 °FClear.5 mph89%29.86 "HgN/A
5:00 AM77 °FPassing clouds.6 mph94%29.83 "HgN/A
4:00 AM77 °FPassing clouds.5 mph94%29.83 "HgN/A
3:00 AM77 °FClear.6 mph94%29.83 "HgN/A
2:00 AM77 °FClear.5 mph94%29.86 "HgN/A
1:04 AM77 °FClear.3 mph94%29.89 "Hg4 mi
12:00 AM79 °FPassing clouds.5 mph94%29.89 "Hg5 mi
11:03 PM
Fri, Apr 17
77 °FClear.No wind94%29.89 "Hg5 mi
10:00 PM79 °FClear.3 mph89%29.92 "Hg5 mi
9:00 PM79 °FPassing clouds.5 mph89%29.89 "HgN/A
8:00 PM79 °FPassing clouds.2 mph89%29.89 "HgN/A
7:00 PM81 °FPassing clouds.6 mph84%29.86 "HgN/A
6:00 PM81 °FClear.6 mph84%29.83 "HgN/A
5:00 PM82 °FSunny.6 mph79%29.83 "HgN/A
4:00 PM84 °FScattered clouds.6 mph79%29.83 "HgN/A
3:00 PM84 °FScattered clouds.7 mph74%29.80 "HgN/A
2:00 PM82 °FScattered clouds.8 mph79%29.83 "HgN/A
1:01 PM84 °FScattered clouds.8 mph74%29.86 "HgN/A
12:04 PM84 °FMostly cloudy.8 mph79%29.89 "HgN/A
11:00 AM86 °FPartly sunny.9 mph75%29.92 "HgN/A
10:00 AM84 °FScattered clouds.9 mph79%29.92 "HgN/A
Weather by CustomWeather, © 2015

See weather overviewHow to use our weather pages